Location: Amon Carter Post Office
(32.8281°N, 97.0484°W)
Time: 04:01:14
(UTC+00:00)

H-2A R/B - Pass Details

Date: 02 July 2022
Orbit: 577 x 651 km, 98.5° (Epoch: 07 August)

Event Time Altitude Azimuth Distance (km) Brightness Sun altitude
Rises 02:54:54 0° 8° (N) 2,935 6.0 -13.8°
Reaches altitude 10° 02:57:07 10° 5° (N) 2,033 5.2 -14.2°
Maximum altitude 03:01:29 60° 285° (WNW) 737 2.7 -14.9°
Drops below altitude 10° 03:05:53 10° 206° (SSW) 2,045 4.6 -15.6°
Sets 03:08:07 0° 202° (SSW) 2,955 5.3 -15.9°
